TimeEDT,TemperatureF,Dew PointF,Humidity,Sea Level PressureIn,VisibilityMPH,Wind Direction,Wind SpeedMPH,Gust SpeedMPH,PrecipitationIn,Events,Conditions,WindDirDegrees,DateUTC
12:52 AM,64.0,55.0,73,30.01,10.0,West,3.5,-,N/A,,Clear,260,2013-09-08 04:52:00
1:52 AM,64.0,55.0,73,30.01,10.0,WSW,6.9,-,N/A,,Clear,250,2013-09-08 05:52:00
2:52 AM,63.0,55.0,75,30.00,10.0,WSW,6.9,-,N/A,,Clear,250,2013-09-08 06:52:00
3:52 AM,63.0,55.0,75,29.99,10.0,West,5.8,-,N/A,,Clear,260,2013-09-08 07:52:00
4:52 AM,63.0,55.9,78,29.99,10.0,West,6.9,-,N/A,,Partly Cloudy,260,2013-09-08 08:52:00
5:52 AM,64.0,55.9,75,29.99,10.0,WSW,6.9,-,N/A,,Mostly Cloudy,250,2013-09-08 09:52:00
6:52 AM,63.0,55.9,78,30.00,10.0,West,5.8,-,N/A,,Clear,260,2013-09-08 10:52:00
7:52 AM,66.0,57.9,75,30.00,10.0,WSW,5.8,-,N/A,,Clear,250,2013-09-08 11:52:00
8:52 AM,69.1,59.0,70,30.01,10.0,West,4.6,-,N/A,,Clear,260,2013-09-08 12:52:00
9:52 AM,72.0,61.0,68,30.02,10.0,Variable,4.6,-,N/A,,Clear,0,2013-09-08 13:52:00
10:52 AM,73.9,62.1,66,30.02,10.0,West,4.6,-,N/A,,Overcast,260,2013-09-08 14:52:00
11:52 AM,75.9,62.1,62,30.01,10.0,Variable,5.8,-,N/A,,Overcast,0,2013-09-08 15:52:00
12:18 PM,75.2,62.6,65,30.10,10.0,WSW,6.9,-,N/A,,Overcast,250,2013-09-08 16:18:00
12:27 PM,75.2,62.6,65,30.11,10.0,WSW,5.8,-,N/A,,Overcast,250,2013-09-08 16:27:00
12:52 PM,77.0,63.0,62,30.00,10.0,WSW,8.1,-,N/A,,Mostly Cloudy,250,2013-09-08 16:52:00
1:52 PM,80.1,60.1,50,29.99,10.0,WNW,5.8,-,N/A,,Scattered Clouds,290,2013-09-08 17:52:00
2:52 PM,82.0,60.1,47,29.98,10.0,West,9.2,-,N/A,,Clear,270,2013-09-08 18:52:00
3:52 PM,81.0,61.0,50,29.97,10.0,WNW,8.1,-,N/A,,Mostly Cloudy,290,2013-09-08 19:52:00
4:52 PM,79.0,61.0,54,29.98,10.0,WNW,4.6,-,N/A,,Overcast,300,2013-09-08 20:52:00
5:52 PM,79.0,61.0,54,29.97,10.0,NW,5.8,-,N/A,,Scattered Clouds,310,2013-09-08 21:52:00
6:52 PM,77.0,62.1,60,29.99,10.0,WNW,3.5,-,N/A,,Overcast,300,2013-09-08 22:52:00
7:52 PM,75.0,61.0,62,29.99,10.0,Calm,Calm,-,N/A,,Clear,0,2013-09-08 23:52:00
8:52 PM,73.0,62.1,68,30.01,10.0,Calm,Calm,-,N/A,,Clear,0,2013-09-09 00:52:00
9:52 PM,73.0,62.1,68,30.01,10.0,Calm,Calm,-,N/A,,Clear,0,2013-09-09 01:52:00
10:47 PM,71.6,62.6,73,30.13,10.0,Calm,Calm,-,N/A,,Mostly Cloudy,0,2013-09-09 02:47:00
10:52 PM,71.1,62.1,73,30.02,10.0,Calm,Calm,-,N/A,,Scattered Clouds,0,2013-09-09 02:52:00
11:05 PM,71.6,62.6,73,30.14,10.0,Calm,Calm,-,N/A,,Mostly Cloudy,0,2013-09-09 03:05:00
11:16 PM,71.6,62.6,73,30.14,10.0,Calm,Calm,-,N/A,,Partly Cloudy,0,2013-09-09 03:16:00
11:52 PM,69.1,63.0,81,30.04,10.0,Calm,Calm,-,N/A,,Clear,0,2013-09-09 03:52:00